Regional Weather Roundup
Issued by NWS Grand Forks, ND

Home | Current Version | Previous Version | Graphics & Text | Print | Product List | Glossary On
Versions: 1 2 3 4 5 6 7 8 9 10 11 12 13 14 15 16 17 18 19 20 21 22 23 24 25 26 27 28 29 30 31 32 33 34 35 36 37 38 39 40 41 42 43 44 45 46 47 48 49 50
000
ASUS43 KFGF 171331
RWRFGF
PRAIRIE TO PINES  WEATHER ROUNDUP
NATIONAL WEATHER SERVICE EASTERN NORTH DAKOTA/GRAND FORKS ND
800 AM CDT TUE OCT 17 2017

 **SATELLITE DATA USED TO AUGMENT SKY COVER AT AUTOMATED STATIONS**
 *****  WEATHER ACROSS EASTERN NORTH DAKOTA  *****

CITY           SKY/WX    TMP DP  RH WIND       PRES   REMARKS
GRAND FORKS    FAIR      37  34  89 S9        29.87F
GRAND FRKS AFB NOT AVBL
DEVILS LAKE    FAIR      47  36  65 S10       29.85F
FARGO          FAIR      40  35  83 S6        29.93F
WAHPETON ARPT  NOT AVBL
$$

 ***** WEATHER ACROSS CENTRAL AND WESTERN NORTH DAKOTA  *****

CITY           SKY/WX    TMP DP  RH WIND       PRES   REMARKS
BISMARCK       FAIR      33  29  85 E5        29.92F
MINOT          FAIR      49  32  52 SW13      29.79F
JAMESTOWN      FAIR      35  30  82 S5        29.91F
MINOT AFB      NOT AVBL
GARRISON         N/A     42  35  76 SW3       29.85F
WILLISTON      FAIR      43  32  65 SW10      29.83F
DICKINSON      FAIR      47  26  44 SW14      29.90F
HETTINGER      FAIR      34  25  69 CALM      29.98F
$$

 *****  OTHER AIRPORT OBSERVATIONS IN OUR AREA  *****

CITY           SKY/WX    TMP DP  RH WIND       PRES   REMARKS
WALHALLA       FAIR     N/A N/A N/A SE7       29.80F
GRAFTON AIRPOR FAIR      36  34  93 SE8       29.87F
VALLEY CITY AR FAIR      32  32 100 S6        29.93F
CANDO          FAIR      36  36 100 S8        29.84F
CAVALIER APRT  FAIR      41  36  81 S7        29.81F
GWINNER          N/A     36  34  93 SW9       29.96S
SHEYENNE NWR     N/A     35  34  96 SW6       29.95S
ROLLA          FAIR      39  32  75 SW7       29.80F
 ***** THE ABOVE OBSERVATIONS ARE NON NWS ARE NOT QUALITY
       CONTROLLED AND MAY MIS-REPORT RAIN FOR SNOW...
$$

  *****  WEATHER ACROSS NORTHERN MINNESOTA  *****

CITY           SKY/WX    TMP DP  RH WIND       PRES   REMARKS
FLAG ISLAND    FAIR      45  39  81 S3        29.87S
WARROAD        FAIR      39  36  87 S3        29.88S
ROSEAU           N/A     37  34  87 S7        29.87F
HALLOCK        FAIR      37  32  81 S8        29.85F
THF RVR FALLS  FAIR      38  33  82 S7        29.92S
BAUDETTE       FAIR      38  34  85 S3        29.90R
WASKISH        FAIR      39  36  87 CALM      29.91S
CROOKSTON      FAIR      36  32  87 S7        29.91F
STEPHEN NDAWN    N/A     39  34  81 SE5         N/A
GREENBUSH NDAW   N/A     37  34  87 S5          N/A
$$
  *****  WEATHER ACROSS CENTRAL AND WEST MINNESOTA  *****

CITY           SKY/WX    TMP DP  RH WIND       PRES   REMARKS
FOSSTON        FAIR      37  34  87 S8        29.94S
BEMIDJI        FAIR      33  32  94 CALM      29.93F
PARK RAPIDS    FAIR      35  31  85 CALM      29.96R
ELBOW LAKE     FAIR      40  39  97 CALM      29.99S
WADENA         FAIR      34  34 100 CALM      29.98R
DETROIT LAKES  FAIR      41  41 100 S5        29.97R
MOORHEAD       FAIR      37  34  87 S6        29.96S
FERGUS FALLS   FAIR      39  39 100 SE3       29.99S
MORRIS MN      FAIR      36  36 100 CALM      29.98S
STAPLES        FAIR      34  34 100 CALM      29.98S
$$
  *****  WEATHER ELSEWHERE ACROSS MINNESOTA  *****

CITY           SKY/WX    TMP DP  RH WIND       PRES   REMARKS
DULUTH         FAIR      44  38  79 NW3       29.96R
INTRNTL FALLS  FAIR      31  28  89 CALM      29.91R
ELY            FAIR      36  36 100 CALM      29.94R
CLOQUET        FAIR      41  36  81 CALM      29.97R
WHEATON        FAIR      36  34  93 SE5       30.00S
BRAINERD       FAIR      35  34  96 CALM      29.98S
HIBBING        FAIR      32  31  96 CALM      29.95S
ALEXANDRIA     FAIR      39  38  96 CALM      29.99S
SAINT CLOUD    FAIR      34  34 100 CALM      29.99S
MINNEAPOLIS    FAIR      48  41  76 CALM      30.01S
$$

  *****  WEATHER ACROSS SOUTH DAKOTA  *****

CITY           SKY/WX    TMP DP  RH WIND       PRES   REMARKS
SIOUX FALLS    FAIR      38  37  97 CALM      30.04S
BROOKINGS      FAIR      38  35  89 SE6       30.03S
WATERTOWN      FAIR      36  36 100 CALM      30.00F
HURON          FAIR      38  36  92 S3        30.01F
SISSETON         N/A     43  36  76 CALM      29.96S
ABERDEEN       FAIR      30  30 100 S5        29.99F
MITCHELL       FAIR      41  37  86 SW5       30.03S
PIERRE         FAIR      40  33  76 SW3       30.01F
MOBRIDGE       FAIR      40  34  79 SE6       29.96S
RAPID CITY     FAIR      46  23  40 W8        30.06S
$$

  *****  SOME WEATHER IN NEARBY STATES *****

CITY           SKY/WX    TMP DP  RH WIND       PRES   REMARKS
GLASGOW MT     FAIR      49  27  42 SW9       29.84F
GREAT FALLS MT FAIR      56  21  25 SW16      29.95F
CHEYENNE WY    FAIR      45  12  26 SW13      30.26S
SCOTTSBLUFF NE FAIR      29  23  78 NW3       30.17S
OMAHA NE       FAIR      47  40  76 S9        30.11S
DES MOINES IA  FAIR      51  40  65 S10       30.12F
DAVENPORT IA   FAIR      50  40  68 S10       30.20S
CHICAGO IL     FAIR      52  39  61 SW13      30.19R
EAU CLAIRE WI  FAIR      39  39 100 CALM      30.02R
LA CROSSE WI   FAIR      50  43  77 S7        30.05S
$$

  *****  SOME NATIONAL WEATHER *****

CITY           SKY/WX    TMP DP  RH WIND       PRES   REMARKS
LA GUARDIA NY  FAIR      47  33  58 N14       30.35R
RALEIGH NC     FAIR      49  40  71 NE6       30.35R
ATLANTA GA     FAIR      54  40  59 E15       30.32R
NEW ORLEANS LA FAIR      61  52  72 NE13      30.19R
OKLAHOMA CITY  FAIR      42  39  89 S7        30.25S
ALBUQUERQUE NM FAIR      48  27  44 N5        30.35R
SALT LAKE CITY FAIR      40  29  64 SE6       30.30S
LOS ANGELES CA FAIR      68  41  37 CALM      29.97R
BOISE ID       FAIR      40  29  64 SE8       30.20F
SEATTLE WA     CLOUDY    51  47  86 S10       29.96F
$$

*** WEATHER ACROSS MANITOBA...SASKATCHEWAN AND ONTARIO ***
                ***ONTARIO***

CITY           SKY/WX    TMP DP  RH WIND       PRES   REMARKS
GERALDTON      PTCLDY    45  37  76 W9        29.77R
THUNDER BAY    PTCLDY    43  37  81 W5        29.88R
SIOUX LOOKOUT  MOCLDY    43  36  75 W6        29.85R
TORONTO        PTSUNNY   46  37  71 S5        30.19F
BIG TROUT LK   LGT RAIN  34  34 100 N9G20     29.75
PICKLE LAKE    PTCLDY    39  34  81 W13G21    29.78R
DRYDEN         CLOUDY    41  36  81 SW6       29.87R
KENORA         MOCLDY    45  41  87 S5        29.87R
$$
                *** MANITOBA***

CITY           SKY/WX    TMP DP  RH WIND       PRES   REMARKS
BRANDON        PTCLDY    30  25  80 SW6       29.73F WCI  24
DAUPHIN        CLEAR     32  28  86 W6        29.68F
ISLAND LAKE    CLOUDY    36  30  80 N3        29.81S
PILOT MOUND      N/A     37  32  81 S10         N/A
THE PAS        CLOUDY    41  34  75 SE9       29.69F
THOMPSON       CLOUDY    30  28  93 VRB2      29.78R
WINNIPEG       PTCLDY    36  32  87 SE7       29.80F
LYNN LAKE      LGT SNOW  28  28 100 SE7       29.70F WCI  21
CHURCHILL      FRZ DRZL  25  25 100 W13       29.80R FOG     WCI  13
GILLAM         FRZ DRZL  27  25  93 N3        29.82R VSB 1/4
$$
                ***SASKATCHEWAN***

CITY           SKY/WX    TMP DP  RH WIND       PRES   REMARKS
ESTEVAN        PTCLDY    41  30  65 SW9       29.75
KINDERSLEY     MOCLDY    41  32  70 S7        29.60F
LLOYDMINSTER   PTCLDY    39  32  75 S8        29.51F
PRINCE ALBERT  PTCLDY    34  28  80 E5        29.58F
REGINA         PTCLDY    46  28  49 SW13      29.69R
YORKTON        CLEAR     39  30  70 S10       29.64F
N. BATTLEFORD  CLEAR     36  30  80 CALM      29.57F
LA RONGE       PTCLDY    43  34  70 SE5       29.58F
SASKATOON      MOCLDY    36  32  87 SW8       29.59F
SWIFT CURRENT  CLEAR     45  27  49 SW18      29.69F
$$
NOTE: THESE ARE AUTOMATED STATIONS WITH LIMITED QUALITY CONTROL
      "FAIR" INDICATES FEW OR NO CLOUDS BELOW 12,000 FEET WITH NO
      SIGNIFICANT WEATHER AND/OR OBSTRUCTIONS TO VISIBILITY.
      SKY/WX - SKY CONDITION AND SIGNIFICANT WEATHER.
      TMP - AIR TEMPERATURE.    DP   - DEWPOINT TEMPERATURE.
      RH  - RELATIVE HUMIDITY.  PRES - PRESSURE.
      HX  - HEAT INDEX.         WCI  - WIND CHILL INDEX.
$




USA.gov is the U.S. government's official web portal to all federal, state and local government web resources and services.